Regional Weather Roundup
Issued by NWS Sterling, VA

Home | Current Version | Previous Version | Text Only | Print | Product List | Glossary Off
Versions: 1 2 3 4 5 6 7 8 9 10 11 12 13 14 15 16 17 18 19 20 21 22 23 24 25 26 27 28 29 30 31 32 33 34 35 36 37 38 39 40 41 42 43 44 45 46 47 48 49 50

000
ASUS41 KLWX 191510
RWRLWX

REGIONAL WEATHER ROUNDUP
NATIONAL WEATHER SERVICE BALTIMORE MD/WASHINGTON DC
1100 AM EDT SUN OCT 19 2014

Note: "FAIR" indicates few or no clouds below 12,000 feet
with no significant weather and/or obstructions to visibility.
 TC=TEMPERATURE CELSIUS

 * =Non NWS site. Station does not report precipitation (e.g. rain,
    snow, etc.), thunder, or fog.

DCZ001-MDZ009-015-VAZ040>042-051-053>054-191600-
WASHINGTON METRO

CITY           SKY/WX    TMP DP  RH WIND       PRES   REMARKS
WASHINGTON NAT MOSUNNY   54  30  40 NW18G29   30.08R
DULLES         MOSUNNY   50  31  48 N24G31    30.08R
ANDREWS AFB    SUNNY     52  30  43 NW21      30.06R
FT BELVOIR     SUNNY     52  30  42 NW17G31   30.08S
QUANTICO       MOSUNNY   53  31  42 NW17G26   30.09S
COLLEGE PARK*  SUNNY     52  32  46 NW10G22   30.06S
LEESBURG*      PTSUNNY   50  34  53 NW13G24   30.10R
MANASSAS*      MOSUNNY   54  34  47 NW15G26   30.09R
GAITHERSBURG*  SUNNY     48  28  46 NW10G25   30.10R

$$

MDZ006>007-011-014-191600-
BALTIMORE METRO

CITY           SKY/WX    TMP DP  RH WIND       PRES   REMARKS
BWI AIRPORT    MOSUNNY   52  31  44 NW17G23   30.04R
MD SCIENCE CTR   N/A     51  28  41 MISG      30.04R
MARTIN STATE   PTSUNNY   54  37  54 NW21      30.04R
ANNAPOLIS      MOSUNNY   53  35  50 NW14G22   30.03R
FORT MEADE*    SUNNY     52  32  46 NW10G20   30.07S

$$

MDZ012-015-019>023-191600-
MARYLAND EASTERN SHORE

CITY           SKY/WX    TMP DP  RH WIND       PRES   REMARKS
OCEAN CITY     MOSUNNY   57  38  48 N17G25    29.97S
SALISBURY      CLOUDY    56  38  50 NW14G24   29.99R
BAY BRIDGE AP*   N/A     52  32  46 NW14G29   30.03R
CAMBRIDGE*     CLOUDY    54  34  47 NW17G25   30.02R

$$

MDZ017>025-191600-
SOUTHERN MARYLAND

CITY           SKY/WX    TMP DP  RH WIND       PRES   REMARKS
PATUXENT RIVER MOSUNNY   55  35  47 NW21G29   30.03R
ST INIGOES     MOSUNNY   55  32  41 NW12G20   30.03R
LEONARDTOWN*   MOSUNNY   52  32  46 W10G23    30.06R

$$

MDZ003>005-191600-
NORTH CENTRAL MARYLAND

CITY           SKY/WX    TMP DP  RH WIND       PRES   REMARKS
FREDERICK*     MOSUNNY  N/A N/A N/A NW16G26   30.11R
HAGERSTOWN APT MOSUNNY   49  29  46 NW16G24   30.08S
WESTMINSTER*   PTSUNNY   48  30  49 N8G16     30.05R

$$

MDZ501>502-191600-
WESTERN MARYLAND

CITY           SKY/WX    TMP DP  RH WIND       PRES   REMARKS
OAKLAND*       CLOUDY    36 N/A N/A NW8       30.10S
CUMBERLAND*    PTSUNNY   50  32  50 NW14G28   30.16R

$$

VAZ025>031-191600-
SHENANDOAH VALLEY

CITY           SKY/WX    TMP DP  RH WIND       PRES   REMARKS
WINCHESTER*    MOSUNNY   50  27  40 NW15G28   30.10R
FRONT ROYAL*   FAIR      50  32  50 NW15G25   30.09R
LURAY*         FAIR      52  32  46 NW8G16    30.11R
NEW MARKET*    FAIR      49  29  45 N6        30.12R
STAUNTON*      SUNNY     53  30  41 NW12      30.13R
WAYNESBORO*    FAIR      51  32  49 N8        30.10R

$$

WVZ021-048>050-054>055-191600-
EASTERN WEST VIRGINIA PANHANDLE

CITY           SKY/WX    TMP DP  RH WIND       PRES   REMARKS
MARTINSBURG    MOSUNNY   50  29  44 NW18G28   30.10S
PETERSBURG*    SUNNY    N/A N/A N/A NW10G22   30.14R

$$

VAZ036>039-050-191600-
CENTRAL FOOTHILLS

CITY           SKY/WX    TMP DP  RH WIND       PRES   REMARKS
CHARLOTTESVILL MOSUNNY   54  31  41 VRB5      30.10R
CULPEPER*      SUNNY     55  34  44 NW8G16    30.10S
ORANGE*        SUNNY     54  32  43 NW10      30.10S
GORDONSVILLE*  FAIR      53  31  41 NW8       30.09R
WARRENTON*     FAIR      55  40  56 NW12      30.08S

$$

VAZ055>057-191600-
NORTH AND CENTRAL PIEDMONT

CITY           SKY/WX    TMP DP  RH WIND       PRES   REMARKS
FREDERICKSBRG* SUNNY     55  33  42 NW14G22   30.08R
STAFFORD*      SUNNY     53  32  44 NW21G26   30.12S

$$

NCZ024-NYZ072-PAZ021-071-VAZ022-071-191600-
OTHER REGIONAL OBSERVATIONS

CITY           SKY/WX    TMP DP  RH WIND       PRES   REMARKS
NEW YORK CITY  CLOUDY    52  35  52 NW13G22   29.92R
PHILADELPHIA   PTSUNNY   52  32  46 NW18G31   29.97R
PITTSBURGH     PTSUNNY   47  32  56 NW15      30.15S
ROANOKE        MOSUNNY   54  34  46 W13G21    30.17R
RICHMOND       MOSUNNY   58  36  43 NW14      30.08R
RALEIGH        MOSUNNY   59  40  49 VRB6      30.13S

$$

ANZ530>537-191600-
MARINE OBSERVATIONS

STATION/POSITION TIME  TEMP    WIND        PRES
                       AIR SEA DIR/SP/G
                 (UTC) (F)     (DEG/KT/KT) (MB)
THOMAS PT LIGHT  1500   51 64  320/ 19/ 24 1017.5R
BALT KEY BRIDGE  1500   51     300/ 19/ 23 1016.7R
COVE POINT       1500   52     330/ 21/ 27 1016.7R
LEWISETTA        1500   53 64  330/ 15/ 21 1017.0R
SOLOMONS ISLAND  1500      66                N/A
PINEY POINT      1500          330/ 23/ 26   N/A

$$



USA.gov is the U.S. government's official web portal to all federal, state and local government web resources and services.